Location: Kelshall
(52.0000°N, 0.0500°W)
Time: 10:46:21
(UTC+00:00)

Meteor 1-15 Rocket - Visible Passes

Search period start: 17 January 2021 00:00
Search period end: 27 January 2021 00:00
Orbit: 839 x 908 km, 81.2° (Epoch: 16 January)

Date Brightness Start Highest point End Pass type
(mag) Time Alt. Az. Time Alt. Az. Time Alt. Az.
17 Jan 7.1 02:41:32 10° ENE 02:41:32 10° ENE 02:41:54 10° ENE visible
17 Jan 4.8 04:24:05 53° NE 04:24:05 53° NE 04:28:45 10° NNE visible
17 Jan 5.1 06:06:38 27° WNW 06:07:04 27° WNW 06:11:49 10° N visible
18 Jan 7.2 02:37:08 10° ENE 02:37:08 10° ENE 02:37:12 10° ENE visible
18 Jan 5.1 04:19:40 43° NE 04:19:40 43° NE 04:23:36 10° NNE visible
18 Jan 5.2 06:02:12 26° NW 06:02:12 26° NW 06:06:37 10° N visible
19 Jan 5.4 04:15:04 36° NNE 04:15:04 36° NNE 04:18:26 10° NNE visible
19 Jan 5.3 05:57:36 24° NW 05:57:36 24° NW 06:01:24 10° N visible
20 Jan 5.6 04:10:23 31° NNE 04:10:23 31° NNE 04:13:16 10° NNE visible
20 Jan 5.5 05:52:54 22° NW 05:52:54 22° NW 05:56:12 10° N visible
21 Jan 5.8 04:05:36 27° NNE 04:05:36 27° NNE 04:08:06 10° NNE visible
21 Jan 5.6 05:48:07 21° NW 05:48:07 21° NW 05:50:59 10° N visible
22 Jan 6.0 04:00:46 24° NNE 04:00:46 24° NNE 04:02:57 10° NNE visible
22 Jan 5.7 05:43:17 19° NNW 05:43:17 19° NNW 05:45:46 10° N visible
23 Jan 6.1 03:55:53 22° NNE 03:55:53 22° NNE 03:57:46 10° NNE visible
23 Jan 5.9 05:38:23 18° NNW 05:38:23 18° NNW 05:40:33 10° N visible
24 Jan 6.3 03:50:57 20° NNE 03:50:57 20° NNE 03:52:36 10° NNE visible
24 Jan 6.0 05:33:27 17° NNW 05:33:27 17° NNW 05:35:20 10° N visible
25 Jan 6.4 03:45:59 18° NNE 03:45:59 18° NNE 03:47:26 10° NNE visible
25 Jan 6.1 05:28:29 15° NNW 05:28:29 15° NNW 05:30:07 10° N visible
26 Jan 6.4 03:40:59 17° NNE 03:40:59 17° NNE 03:42:16 10° NNE visible
26 Jan 6.1 05:23:30 15° NNW 05:23:30 15° NNW 05:24:53 10° N visible
